SCF7520 ZYTX-ZKPY

Flight info

Callsign SCF7520
Flight time N/A
Altitude 26600
Route ANS71D ANSUK A345 GASAN GAS11A
Aircraft A359/H-SDE2E3GHIJ3J4J5LM1ORWXY/LB1D1

Departure

Time 2026-04-24 05:31
Airport Shenyang Taoxian International Airport (ZYTX)

Arrival

Time N/A
Airport Pyongyang Sunan International Airport (ZKPY)
Time Latitude Longitude Altitude Speed Heading
2026-04-24 05:26 41.64454 123.49604 213 ft 0 kts 329°
2026-04-24 05:30 41.64481 123.49583 221 ft 10 kts 329°
2026-04-24 05:30 41.64578 123.49548 217 ft 19 kts 356°
2026-04-24 05:30 41.64665 123.49487 221 ft 23 kts 319°
2026-04-24 05:30 41.64675 123.49369 222 ft 11 kts 235°
2026-04-24 05:31 41.64604 123.49261 219 ft 36 kts 228°
2026-04-24 05:31 41.64254 123.48733 216 ft 113 kts 229°
2026-04-24 05:31 41.63601 123.47752 372 ft 161 kts 229°
2026-04-24 05:31 41.62880 123.46673 1383 ft 150 kts 228°
2026-04-24 05:32 41.62148 123.45557 1873 ft 172 kts 226°
2026-04-24 05:32 41.61280 123.44272 2120 ft 201 kts 227°
2026-04-24 05:32 41.60307 123.42797 2494 ft 221 kts 228°
2026-04-24 05:32 41.59262 123.41207 3085 ft 234 kts 227°
2026-04-24 05:33 41.58152 123.39589 3855 ft 238 kts 224°
2026-04-24 05:33 41.56744 123.38440 4676 ft 241 kts 200°
2026-04-24 05:33 41.55049 123.38372 5419 ft 255 kts 171°
2026-04-24 05:34 41.51743 123.40558 6752 ft 273 kts 156°
2026-04-24 05:34 41.50064 123.41810 7400 ft 279 kts 156°
2026-04-24 05:34 41.48351 123.43086 8038 ft 286 kts 155°
2026-04-24 05:34 41.46764 123.44767 8667 ft 300 kts 135°
2026-04-24 05:35 41.45711 123.47215 9379 ft 309 kts 115°
2026-04-24 05:35 41.44937 123.49914 10055 ft 314 kts 112°
2026-04-24 05:35 41.44164 123.52711 10400 ft 331 kts 112°
2026-04-24 05:35 41.43335 123.55659 10689 ft 347 kts 112°
2026-04-24 05:36 41.42471 123.58739 11023 ft 361 kts 111°
2026-04-24 05:36 41.41862 123.62016 11521 ft 368 kts 101°
2026-04-24 05:36 41.41440 123.65402 12119 ft 373 kts 99°
2026-04-24 05:36 41.41036 123.68830 12736 ft 376 kts 99°
2026-04-24 05:37 41.40624 123.72281 13358 ft 379 kts 100°
2026-04-24 05:37 41.40196 123.75811 13966 ft 382 kts 100°
2026-04-24 05:37 41.39767 123.79307 14554 ft 384 kts 100°
2026-04-24 05:37 41.39337 123.82783 15115 ft 387 kts 100°
2026-04-24 05:38 41.38898 123.86333 15701 ft 390 kts 100°
2026-04-24 05:38 41.38448 123.89912 16307 ft 393 kts 101°
2026-04-24 05:38 41.37677 123.93399 16881 ft 393 kts 115°
2026-04-24 05:38 41.36460 123.96670 17409 ft 396 kts 120°
2026-04-24 05:39 41.35150 123.99904 17945 ft 399 kts 120°
2026-04-24 05:39 41.33825 124.03169 18478 ft 402 kts 120°
2026-04-24 05:39 41.32500 124.06455 18920 ft 406 kts 120°
2026-04-24 05:39 41.31164 124.09775 19412 ft 408 kts 120°
2026-04-24 05:40 41.29636 124.12947 19899 ft 407 kts 131°
2026-04-24 05:40 41.27587 124.15513 20366 ft 404 kts 148°
2026-04-24 05:40 41.25106 124.17201 20831 ft 400 kts 165°
2026-04-24 05:40 41.22399 124.17943 21302 ft 396 kts 178°
2026-04-24 05:41 41.19642 124.18201 21757 ft 398 kts 181°
2026-04-24 05:41 41.16871 124.18400 22219 ft 401 kts 181°
2026-04-24 05:41 41.14078 124.18609 22639 ft 404 kts 180°
2026-04-24 05:41 41.11265 124.18831 23085 ft 407 kts 180°
2026-04-24 05:42 41.08425 124.19064 23527 ft 410 kts 180°
2026-04-24 05:42 41.05574 124.19300 23914 ft 412 kts 180°
2026-04-24 05:42 41.02706 124.19554 24292 ft 415 kts 180°
2026-04-24 05:42 40.99815 124.19861 24639 ft 418 kts 179°
2026-04-24 05:43 40.96914 124.20200 25002 ft 420 kts 179°
2026-04-24 05:43 40.93997 124.20553 25406 ft 422 kts 179°
2026-04-24 05:43 40.91061 124.20906 25767 ft 425 kts 179°
2026-04-24 05:43 40.88101 124.21255 26169 ft 428 kts 179°
2026-04-24 05:44 40.85130 124.21601 26476 ft 429 kts 179°
2026-04-24 05:44 40.82196 124.21945 26540 ft 415 kts 180°
2026-04-24 05:44 40.79361 124.22279 26546 ft 405 kts 180°
2026-04-24 05:44 40.76561 124.22602 26549 ft 403 kts 180°
2026-04-24 05:45 40.73766 124.22918 26549 ft 403 kts 180°
2026-04-24 05:45 40.70977 124.23230 26556 ft 402 kts 180°
2026-04-24 05:45 40.68186 124.23542 26555 ft 402 kts 180°
2026-04-24 05:45 40.65394 124.23854 26558 ft 402 kts 180°
2026-04-24 05:46 40.62606 124.24169 26556 ft 403 kts 180°
2026-04-24 05:46 40.59816 124.24484 26565 ft 403 kts 180°
2026-04-24 05:46 40.57019 124.24800 26552 ft 404 kts 180°
2026-04-24 05:46 40.54171 124.25116 26676 ft 419 kts 180°
2026-04-24 05:47 40.51186 124.25442 26648 ft 439 kts 179°
2026-04-24 05:47 40.48114 124.25782 26575 ft 444 kts 179°
2026-04-24 05:47 40.45079 124.26133 26577 ft 430 kts 179°
2026-04-24 05:47 40.42155 124.26479 26561 ft 414 kts 179°
2026-04-24 05:48 40.39235 124.26814 26420 ft 431 kts 179°
2026-04-24 05:48 40.36201 124.27147 26373 ft 439 kts 179°
2026-04-24 05:48 40.33221 124.27599 26359 ft 425 kts 173°
2026-04-24 05:48 40.30403 124.28655 26198 ft 423 kts 162°
2026-04-24 05:49 40.27786 124.30487 25692 ft 431 kts 147°
2026-04-24 05:49 40.25578 124.33160 25141 ft 435 kts 131°
2026-04-24 05:49 40.23971 124.36512 24611 ft 437 kts 115°
2026-04-24 05:49 40.22915 124.40239 24036 ft 437 kts 108°
2026-04-24 05:50 40.22057 124.44047 23447 ft 436 kts 105°
2026-04-24 05:50 40.21273 124.47872 22819 ft 434 kts 105°
2026-04-24 05:50 40.20164 124.51521 22259 ft 430 kts 118°
2026-04-24 05:50 40.18693 124.54843 21720 ft 426 kts 122°
2026-04-24 05:51 40.17118 124.58106 21181 ft 423 kts 123°
2026-04-24 05:51 40.15528 124.61327 20638 ft 420 kts 123°
2026-04-24 05:51 40.13939 124.64516 20090 ft 417 kts 123°
2026-04-24 05:51 40.12353 124.67676 19550 ft 415 kts 123°
2026-04-24 05:52 40.10770 124.70823 19003 ft 413 kts 123°
2026-04-24 05:52 40.09200 124.73941 18449 ft 410 kts 123°
2026-04-24 05:52 40.07638 124.77038 17855 ft 407 kts 123°
2026-04-24 05:52 40.06087 124.80104 17307 ft 402 kts 123°
2026-04-24 05:53 40.04555 124.83133 16781 ft 398 kts 123°
2026-04-24 05:53 40.03034 124.86137 16233 ft 395 kts 123°
2026-04-24 05:53 40.01523 124.89118 15711 ft 392 kts 123°
2026-04-24 05:53 40.00023 124.92076 15178 ft 390 kts 123°
2026-04-24 05:54 39.98531 124.95010 14662 ft 386 kts 123°
2026-04-24 05:54 39.97054 124.97918 14134 ft 384 kts 123°
2026-04-24 05:54 39.95582 125.00808 13585 ft 381 kts 123°
2026-04-24 05:54 39.94120 125.03675 13044 ft 378 kts 123°
2026-04-24 05:55 39.92671 125.06513 12527 ft 375 kts 123°
2026-04-24 05:55 39.91235 125.09333 12000 ft 372 kts 123°
2026-04-24 05:55 39.89809 125.12131 11492 ft 370 kts 124°
2026-04-24 05:55 39.88410 125.14868 11315 ft 356 kts 124°
2026-04-24 05:56 39.87059 125.17497 11189 ft 342 kts 124°
2026-04-24 05:56 39.85768 125.20020 11057 ft 329 kts 124°
2026-04-24 05:56 39.84526 125.22447 10921 ft 316 kts 124°
2026-04-24 05:56 39.83319 125.24800 10663 ft 310 kts 124°
2026-04-24 05:57 39.82123 125.27130 10325 ft 309 kts 124°
2026-04-24 05:57 39.80934 125.29448 9993 ft 307 kts 124°
2026-04-24 05:57 39.79748 125.31753 9654 ft 307 kts 124°
2026-04-24 05:57 39.78565 125.34056 9326 ft 306 kts 124°
2026-04-24 05:58 39.77381 125.36355 9015 ft 306 kts 125°
2026-04-24 05:58 39.76205 125.38635 8681 ft 302 kts 125°
2026-04-24 05:58 39.75035 125.40903 8367 ft 301 kts 125°
2026-04-24 05:58 39.73841 125.43131 8036 ft 298 kts 130°